Regional Weather Roundup
Issued by NWS Midland/Odessa, TX

Skip options and go directly to product.
Home | Oldest Version | Previous Version | Current Version | All | Text Only | Save Text | Print | Product List | Glossary Off

Skip product version selection by date and time.   

217
ASUS44 KMAF 281710
RWRMAF
MIDLAND AREA WEATHER ROUNDUP
NATIONAL WEATHER SERVICE MIDLAND TX
1100 AM CST FRI NOV 28 2014

...IN SOUTHWEST TEXAS AND SOUTHEAST NEW MEXICO...

CITY           SKY/WX    TMP DP  RH WIND       PRES   REMARKS
ALPINE         SUNNY     64  21  19 SW17      30.32S
ANDREWS        FAIR      61  30  31 SW10G16   30.18F
ARTESIA        NOT AVBL
BIG SPRING     SUNNY     61  34  36 S18       30.20S
CARLSBAD       SUNNY     51  32  48 CALM      30.17F
DRYDEN           N/A     58  37  45 S5        30.24F
FORT STOCKTON  LGT RAIN  69  24  18 SW16      30.19F
GUAD PASS      NOT AVBL
HOBBS          SUNNY     57  32  38 S8        30.18F
MARFA          SUNNY     57  27  30 S6        30.32S
MIDLAND AIRPK  SUNNY     61  33  35 S14       30.19F
MIDLAND INTL   SUNNY     60  32  34 SW13      30.19S
ODESSA         SUNNY     59  31  34 SW12      30.20S
PECOS          SUNNY     53  31  43 S3        30.19F
PRESIDIO       FAIR      58  29  33 SE9       30.27F
SEMINOLE       SUNNY     61  30  31 SW10      30.18F
SNYDER         SUNNY     57  40  51 SW16G22   30.16F
WINK           SUNNY     57  31  37 VRB5      30.18F
$$
...OTHER STATIONS IN TEXAS...

CITY           SKY/WX    TMP DP  RH WIND       PRES   REMARKS
ABILENE        SUNNY     58  45  62 SW24G36   30.17F
AMARILLO       MOSUNNY   62  26  25 SW7       30.04S
AUSTIN         MOSUNNY   63  53  70 S16       30.28F
BROWNSVILLE    SUNNY     75  54  47 S15       30.30F
CORPUS CHRISTI MOSUNNY   71  55  56 S15       30.31F
DALLAS FTW     MOSUNNY   60  46  59 S23       30.19F
DEL RIO        CLOUDY    54  50  86 SE8       30.28S
EL PASO        MOSUNNY   53  24  32 N3        30.26S
HOUSTON INT    MOSUNNY   65  51  60 S9        30.32F
LUBBOCK        PTSUNNY   62  30  29 SW13      30.11F
SAN ANGELO     SUNNY     63  45  51 S22G32    30.22S
SAN ANTONIO    MOSUNNY   63  53  70 SW14      30.30F
WACO           MOSUNNY   62  49  62 S20       30.26F
WICHITA FALLS  NOT AVBL
$$
...OTHER LOCATIONS IN NEW MEXICO...

CITY           SKY/WX    TMP DP  RH WIND       PRES   REMARKS
ALAMAGORDO     MOSUNNY   54  23  30 S3        30.27F
ALBUQUERQUE    MOSUNNY   45  20  36 CALM      30.29F
CANNON AFB     SUNNY     63  23  22 W17       30.13F
CLOVIS         MOSUNNY   63  27  25 W16       30.12S
HOLLOMAN AFB   MOSUNNY   50  24  35 S3        30.26F
ROSWELL        SUNNY     50  32  50 VRB3      30.17F
RUIDOSO        SUNNY     57  19  23 NW7       30.31S
SANTA FE       SUNNY     46  21  37 N12       30.28F
TRUTH OR CONSE SUNNY     51  21  30 VRB3      30.27F
TUCUMCARI      PTSUNNY   68  14  12 W23       30.06F
$$

USA.gov is the U.S. government's official web portal to all federal, state and local government web resources and services.